Regional Weather Roundup
Issued by NWS

Home | Current Version | Previous Version | Graphics & Text | Print | Product List | Glossary On
Versions: 1 2 3 4 5 6 7 8 9 10 11 12 13 14 15 16 17 18 19 20 21 22 23 24 25 26 27 28 29 30 31 32 33 34 35 36 37 38 39 40 41 42 43 44 45 46 47 48 49 50
000
ASUS43 KLOT 291010
RWRIL

ILLINOIS REGIONAL WEATHER ROUNDUP
NATIONAL WEATHER SERVICE CHICAGO/ROMEOVILLE IL
500 AM CDT FRI AUG 29 2014

NOTE: "FAIR" INDICATES FEW OR NO CLOUDS BELOW 12,000 FEET WITH NO
SIGNIFICANT WEATHER AND/OR OBSTRUCTIONS TO VISIBILITY.

* THESE STATIONS ARE NOT UNDER NWS QUALITY CONTROL. THEY ALSO MAY NOT
  REPORT WEATHER SUCH AS PRECIPITATION OR FOG.

ILZ001-002-007-009-015-016-024-291100-
NORTHWEST ILLINOIS

CITY           SKY/WX    TMP DP  RH WIND       PRES   REMARKS
MOLINE         PTCLDY    70  67  90 S8        29.91F
STERLING*      MOCLDY    66  64  94 SE3       29.95S
SAVANNA*       MOCLDY    68  66  93 SE3       29.93S FOG
$$

ILZ003-004-008-010-011-017-018-291100-
NORTH CENTRAL ILLINOIS

CITY           SKY/WX    TMP DP  RH WIND       PRES   REMARKS
ROCKFORD       MOCLDY    67  65  93 S6        29.97S FOG
FREEPORT*      PTCLDY    64  63  96 SE3       29.97S FOG
ROCHELLE*      MOCLDY    68  66  94 S5        29.96S FOG
DE KALB*       MOCLDY    66  65  94 S7        29.98S FOG
PERU*          CLOUDY    70  68  95 SE6       29.96F
$$

ILZ005-006-012>014-019>023-291100-
NORTHEAST ILLINOIS

CITY           SKY/WX    TMP DP  RH WIND       PRES   REMARKS
CHICAGO-OHARE  CLOUDY    71  63  75 S6        29.97S
CHICAGO-MIDWAY CLOUDY    73  66  78 S9        29.98R
AURORA         CLOUDY    69  66  90 SE6       29.97S FOG
LANSING*       CLOUDY    69  64  84 SE5       29.99S
JOLIET*        CLOUDY    68  65  90 CALM      29.98S
WAUKEGAN       CLOUDY    71  65  81 SE6       29.97S
DUPAGE AIRPORT CLOUDY    70  66  87 SE6       29.97S
KANKAKEE*      CLOUDY    70  67  90 SE7       29.99S
WHEELING       CLOUDY    72  65  78 S7        29.98F
MORRIS*        CLOUDY    69  69 100 CALM      29.97S
ROMEOVILLE*    CLOUDY    68  67  97 S6        29.98S
NORTHERLY ISL    N/A     71  63  75 SE7         N/A
$$

LMZ740>746-291100-
SOUTHERN LAKE MICHIGAN

STATION/POSITION SKY/WX   TEMP    WIND        PRES    VSBY  WAVE
                          AIR SEA DIR/SP/G                  HT/PER
                          (F)     (DEG/KT/KT) (MB)    (MI)  (FT/S)
WAUKEGAN HARBOR            72     170/  9/ 11   N/A
HARRISON CRIB              72     170/ 17/ 20   N/A
BURNHAM HARBOR             71     180/  6/  9   N/A
CALUMET HARBOR             72     160/  7/ 12 1014.1R
MICHIGAN CITY              69     130/ 13/ 17   N/A
MICHIGAN CITY 6N           71 72  150/ 14/ 19   N/A           1/ 2
ST. JOSEPH                 69 70  140/ 16/ 19   N/A           2/ 2
$$

ILZ025>027-034>036-040-047-049-050-058-095>099-291100-
WEST-CENTRAL ILLINOIS

CITY           SKY/WX    TMP DP  RH WIND       PRES   REMARKS
QUINCY         CLEAR     71  69  93 SE7       29.93S FOG
GALESBURG*     MOCLDY    68  67  96 SE6       29.94R
MACOMB*        MOCLDY    68  67  98 S6        29.96S
JACKSONVILLE*  PTCLDY    73  71  92 SE5       29.96S
PITTSFIELD*    PTCLDY    72  69  90 SE5       29.95S FOG
$$

ILZ028>032-037-038-041>044-048-051>054-059>061-291100-
CENTRAL ILLINOIS

CITY           SKY/WX    TMP DP  RH WIND       PRES   REMARKS
PONTIAC        MOCLDY    70  70 100 CALM      29.96F FOG
DECATUR        MOCLDY    72  69  90 SE6       29.98S
PEORIA         PTCLDY    72  67  84 S5        29.95S
LACON*         CLOUDY    69  67  93 CALM      29.95R
LINCOLN*       CLOUDY    72  69  93 S3        29.94R
SPRINGFIELD    MOCLDY    72  70  93 S5        29.96R
TAYLORVILLE    CLOUDY    70  70 100 SE6       29.97S
$$

ILZ033-039-045-046-055>057-062-063-291100-
EAST-CENTRAL ILLINOIS

CITY           SKY/WX    TMP DP  RH WIND       PRES   REMARKS
CHAMPAIGN      MOCLDY    71  69  93 SE7       29.99R
DANVILLE*      CLOUDY    69  66  90 SE7       29.97F
RANTOUL*       MOCLDY    73  67  84 SE6       29.99S
MATTOON        MOCLDY    71  70  96 SE3       29.98S
PARIS*         MOCLDY    70  69  96 E3        30.01R
$$

ILZ079-100>102-291100-
SOUTHWEST ILLINOIS

CITY           SKY/WX    TMP DP  RH WIND       PRES   REMARKS
BELLEVILLE     CLEAR     72  72 100 E3        29.95F
CAHOKIA*       CLEAR     72  71  97 CALM      29.95S FOG
SPARTA*        CLEAR     70  70  99 CALM      29.97S FOG
$$

ILZ064>066-069>071-074>076-080>082-084>086-088>090-092>094-291100-
SOUTH-CENTRAL ILLINOIS

CITY           SKY/WX    TMP DP  RH WIND       PRES   REMARKS
CARBONDALE     PTCLDY    70  68  93 CALM      29.96S FOG
CAIRO*         FOG       71  69  93 CALM      29.95S VSB 1
EFFINGHAM*     RAIN      72  69  90 CALM      29.98F
MARION         PTCLDY    73  72  94 CALM      29.97S FOG
MT. VERNON     PTCLDY    73  66  78 CALM      29.98S
CENTRALIA*     PTCLDY    72  68  89 CALM      29.98S FOG
SALEM*         MOCLDY    74  73  96 CALM      29.98S FOG
METROPOLIS*      N/A     71  71 100 CALM      29.96S FOG
$$

ILZ067-068-072-073-078-083-087-091-291100-
SOUTHEAST ILLINOIS

CITY           SKY/WX    TMP DP  RH WIND       PRES   REMARKS
LAWRENCEVILLE  MOCLDY    74  72  93 E6        29.98S FOG
FLORA*         MOCLDY    73  72  97 CALM      29.98S FOG
FAIRFIELD*     PTCLDY    73  72  94 CALM      29.97S
HARRISBURG*    CLEAR     71  71 100 CALM      29.98S FOG
ROBINSON*      CLOUDY    75  73  95 E5        30.00S
CARMI*         PTCLDY    71  71  99 CALM      29.97S FOG
$$

ABBREVIATIONS USED IN REMARKS
   TC - TEMPERATURE IN CELSIUS
  WCI - WIND CHILL INDEX
   HX - HEAT INDEX
  VSB - VISIBILITY
$$




USA.gov is the U.S. government's official web portal to all federal, state and local government web resources and services.